Location: Newark
(47.5833°N, 8.1500°E)
Time: 14:31:33
(UTC+00:00)

Tiros 1 - Pass Details

Date: 29 October 2020
Orbit: 630 x 664 km, 48.4° (Epoch: 29 November)

Event Time Altitude Azimuth Distance (km) Brightness Sun altitude
Exits shadow 02:59:13 29° 99° (E) 1,165 8.9 -32.0°
Drops below altitude 10° 03:01:43 10° 80° (E) 2,009 10.5 -31.6°
Sets 03:04:07 0° 74° (ENE) 2,919 11.7 -31.2°
